DW1920 Weather Reports


Display with metric or nautical units.
time (UTC)temp
F
wind
direction
speed
MPH
gust
MPH
rain 1hr
in
rain 24hr
in
rain mn
in
humidity
%
barometer
mb
20260905133003 65 23 13.0 18.0 0.00 0.04 0.00 85 1008.1
20260905132003 64 12 10.0 19.0 0.00 0.04 0.00 87 1008.1
20260905131003 65 27 10.0 19.0 0.00 0.04 0.00 86 1008.0
20260905130024 65 20 11.0 17.0 0.00 0.04 0.00 86 1008.0
20260905125002 65 20 10.0 16.0 0.00 0.04 0.00 86 1008.0
20260905124003 64 15 5.0 17.0 0.00 0.04 0.00 87 1008.0
20260905122024 64 7 7.0 19.0 0.00 0.04 0.00 88 1007.7
20260905121003 64 12 8.0 16.0 0.00 0.04 0.00 88 1007.7
20260905120003 64 1 8.0 19.0 0.00 0.04 0.00 88 1007.6
20260905115003 64 5 8.0 15.0 0.00 0.04 0.00 88 1007.6
20260905114023 63 342 7.0 17.0 0.00 0.04 0.00 88 1007.5
20260905113003 63 356 8.0 18.0 0.00 0.04 0.00 88 1007.3
20260905112003 63 344 8.0 19.0 0.00 0.04 0.00 89 1007.2
20260905111002 62 0 9.0 18.0 0.00 0.04 0.00 89 1007.1
20260905110003 62 344 6.0 17.0 0.00 0.04 0.00 89 1007.2
20260905105003 62 351 9.0 15.0 0.00 0.04 0.00 89 1007.0
20260905104003 61 357 9.0 14.0 0.00 0.04 0.00 90 1006.9
20260905103003 61 354 8.0 16.0 0.00 0.04 0.00 90 1006.7
20260905102002 61 343 7.0 17.0 0.00 0.04 0.00 89 1006.7
20260905101003 61 335 8.0 16.0 0.00 0.04 0.00 89 1006.6
20260905100024 62 333 7.0 14.0 0.00 0.04 0.00 89 1006.5
20260905095024 62 330 7.0 16.0 0.00 0.04 0.00 89 1006.5
20260905094003 62 334 8.0 14.0 0.00 0.04 0.00 89 1006.4
20260905093003 62 325 8.0 15.0 0.00 0.04 0.00 89 1006.3
20260905092003 62 330 7.0 16.0 0.00 0.04 0.00 89 1006.3
20260905091024 62 333 9.0 17.0 0.00 0.04 0.00 89 1006.3
20260905090024 62 322 7.0 14.0 0.00 0.04 0.00 89 1006.4
20260905085002 62 330 8.0 15.0 0.00 0.04 0.00 89 1006.4
20260905084003 62 337 7.0 14.0 0.00 0.04 0.00 89 1006.4
20260905083024 62 339 7.0 12.0 0.00 0.04 0.00 89 1006.4
20260905082003 63 341 8.0 13.0 0.00 0.04 0.00 88 1006.2
20260905081003 63 334 7.0 15.0 0.00 0.04 0.00 88 1006.1
20260905080003 63 330 8.0 15.0 0.00 0.04 0.00 88 1006.1
20260905075003 63 337 8.0 13.0 0.00 0.04 0.00 88 1006.1
20260905074003 63 338 6.0 13.0 0.00 0.04 0.00 88 1006.0
20260905073024 63 331 7.0 16.0 0.00 0.04 0.00 88 1006.0
20260905072023 63 321 8.0 13.0 0.00 0.04 0.00 88 1006.0
20260905071003 63 338 7.0 14.0 0.00 0.04 0.00 88 1006.0
20260905070003 64 336 8.0 13.0 0.00 0.04 0.00 88 1006.0
20260905065002 64 344 8.0 14.0 0.00 0.04 0.00 88 1006.0
20260905064003 64 328 6.0 12.0 0.00 0.04 0.00 87 1006.0
20260905063023 64 331 6.0 12.0 0.00 0.04 0.00 87 1006.1
20260905062003 64 326 6.0 13.0 0.00 0.04 0.00 87 1006.0
20260905061002 65 330 7.0 16.0 0.00 0.04 0.00 86 1005.9
20260905060003 65 331 10.0 17.0 0.00 0.04 0.00 86 1005.9
20260905055002 65 340 7.0 15.0 0.00 0.04 0.00 86 1006.0
20260905054003 65 341 6.0 14.0 0.00 0.04 0.00 86 1006.1
20260905053003 65 336 8.0 16.0 0.00 0.04 0.00 86 1006.0
20260905052002 65 338 7.0 14.0 0.00 0.04 0.00 86 1006.1
20260905051003 65 337 6.0 12.0 0.00 0.04 0.00 87 1006.1
20260905050003 65 337 7.0 10.0 0.00 0.04 0.00 87 1006.2
20260905045003 65 344 4.0 8.0 0.00 0.04 0.00 86 1006.2
20260905044003 65 333 6.0 11.0 0.00 0.04 0.00 86 1006.3
20260905043002 65 332 6.0 10.0 0.00 0.04 0.00 86 1006.4
20260905042003 65 327 7.0 12.0 0.00 0.04 0.00 86 1006.3
20260905041044 65 329 7.0 11.0 0.00 0.04 0.00 86 1006.2
20260905040003 66 319 7.0 12.0 0.00 0.04 0.04 86 1006.3
20260905035024 66 327 6.0 11.0 0.00 0.04 0.04 86 1006.2
20260905034003 66 318 7.0 11.0 0.00 0.04 0.04 86 1006.2
20260905033024 66 305 7.0 11.0 0.00 0.04 0.04 86 1006.3
20260905032002 66 306 6.0 9.0 0.00 0.04 0.04 86 1006.2
20260905031003 67 319 5.0 7.0 0.00 0.04 0.04 85 1006.2
20260905030003 67 330 4.0 7.0 0.00 0.04 0.04 84 1006.1
20260905025024 67 324 5.0 9.0 0.00 0.04 0.04 84 1006.1
20260905024003 68 334 5.0 9.0 0.00 0.04 0.04 84 1006.2
20260905023003 68 338 5.0 8.0 0.00 0.04 0.04 85 1006.2
20260905022003 68 318 4.0 7.0 0.00 0.04 0.04 85 1006.3
20260905021003 68 327 3.0 8.0 0.00 0.04 0.04 86 1006.3
20260905020002 67 332 5.0 11.0 0.00 0.04 0.04 88 1006.3
20260905015003 67 334 6.0 10.0 0.00 0.04 0.04 90 1006.0
20260905014003 67 326 5.0 9.0 0.00 0.04 0.04 90 1006.4
20260905013003 67 333 4.0 6.0 0.00 0.04 0.04 91 1006.6
20260905012003 66 319 4.0 6.0 0.00 0.04 0.04 91 1006.6
20260905011002 66 324 3.0 5.0 0.00 0.04 0.04 92 1006.6
20260905010024 66 334 3.0 6.0 0.00 0.04 0.04 91 1006.6
20260905005003 66 307 3.0 5.0 0.00 0.04 0.04 91 1006.7
20260905004003 66 319 4.0 4.0 0.00 0.04 0.04 91 1006.7
20260905003003 66 284 2.0 3.0 0.00 0.04 0.04 91 1006.7
20260905002002 66 284 3.0 5.0 0.00 0.04 0.04 91 1006.5
20260905000004 66 316 4.0 8.0 0.00 0.04 0.04 91 1006.2
20260904235003 66 309 6.0 11.0 0.00 0.04 0.04 92 1006.2
20260904234003 65 315 7.0 10.0 0.00 0.04 0.04 92 1006.0
20260904233002 65 278 6.0 8.0 0.00 0.04 0.04 91 1006.0
20260904232003 65 260 4.0 8.0 0.00 0.04 0.04 91 1005.8
20260904231023 65 262 5.0 7.0 0.00 0.04 0.04 90 1006.0
20260904230003 66 227 2.0 7.0 0.00 0.04 0.04 90 1006.0
20260904225003 66 250 3.0 4.0 0.00 0.04 0.04 89 1006.0
20260904224003 67 257 4.0 9.0 0.00 0.04 0.04 89 1006.1
20260904223003 67 260 4.0 7.0 0.00 0.04 0.04 88 1006.1
20260904222002 68 228 3.0 5.0 0.00 0.04 0.04 87 1006.0
20260904221024 69 224 3.0 7.0 0.00 0.04 0.04 86 1005.8
20260904220003 70 220 2.0 4.0 0.00 0.04 0.04 88 1005.8
20260904215002 70 184 3.0 4.0 0.00 0.04 0.04 88 1005.9
20260904214003 69 147 3.0 4.0 0.00 0.04 0.04 89 1006.0
20260904213003 69 92 0.0 2.0 0.00 0.04 0.04 90 1006.0
20260904212003 69 88 1.0 4.0 0.00 0.04 0.04 90 1006.1
20260904211024 68 85 2.0 5.0 0.00 0.04 0.04 90 1006.2
20260904210003 68 31 2.0 3.0 0.04 0.04 0.04 90 1006.1
20260904205003 67 18 3.0 12.0 0.00 0.00 0.00 89 1006.5
20260904204002 68 338 7.0 12.0 0.00 0.00 0.00 88 1006.2
20260904203024 68 251 2.0 9.0 0.00 0.00 0.00 88 1005.7
20260904202024 67 261 3.0 11.0 0.00 0.00 0.00 89 1005.9
20260904201003 68 239 3.0 10.0 0.00 0.00 0.00 88 1005.6
20260904200003 68 251 4.0 11.0 0.00 0.00 0.00 88 1005.6
20260904195024 68 249 4.0 10.0 0.00 0.00 0.00 90 1005.9
20260904194002 67 245 3.0 7.0 0.00 0.00 0.00 90 1006.0
20260904193024 67 240 5.0 10.0 0.00 0.00 0.00 91 1006.3
20260904192003 66 261 8.0 12.0 0.00 0.00 0.00 90 1006.2
20260904191002 66 259 8.0 13.0 0.00 0.00 0.00 90 1006.0
20260904190004 66 274 6.0 10.0 0.00 0.00 0.00 89 1006.1
20260904185002 67 238 3.0 8.0 0.00 0.00 0.00 88 1006.2
20260904184003 68 230 4.0 8.0 0.00 0.00 0.00 89 1006.3
20260904183003 68 235 2.0 9.0 0.00 0.00 0.00 90 1006.3
20260904182002 68 233 5.0 9.0 0.00 0.00 0.00 89 1006.4
20260904181003 68 217 4.0 9.0 0.00 0.00 0.00 89 1006.3
20260904180003 68 223 5.0 8.0 0.00 0.00 0.00 90 1006.5
20260904175003 68 232 3.0 4.0 0.00 0.00 0.00 90 1006.7
20260904174003 68 230 4.0 8.0 0.00 0.00 0.00 88 1006.7
20260904173024 69 235 4.0 8.0 0.00 0.00 0.00 89 1006.8
20260904172003 69 226 5.0 10.0 0.00 0.00 0.00 89 1006.8
20260904171002 70 225 6.0 9.0 0.00 0.00 0.00 88 1006.8
20260904170003 70 220 4.0 7.0 0.00 0.00 0.00 90 1007.1
20260904165024 70 216 3.0 5.0 0.00 0.00 0.00 90 1007.0
20260904164023 69 204 4.0 7.0 0.00 0.00 0.00 91 1007.1
20260904163003 68 190 5.0 8.0 0.00 0.00 0.00 91 1007.1
20260904162002 68 195 5.0 6.0 0.00 0.00 0.00 92 1007.3
20260904161024 68 183 4.0 6.0 0.00 0.00 0.00 92 1007.5
20260904160003 68 182 4.0 5.0 0.00 0.00 0.00 92 1007.5
20260904155003 69 141 2.0 5.0 0.00 0.00 0.00 93 1007.4
20260904154003 68 156 3.0 5.0 0.00 0.00 0.00 94 1007.6
20260904153003 68 203 5.0 8.0 0.00 0.00 0.00 94 1007.8
20260904152002 67 152 5.0 8.0 0.00 0.00 0.00 95 1007.8
20260904151024 67 121 7.0 8.0 0.00 0.00 0.00 95 1007.8
20260904150003 67 108 2.0 4.0 0.00 0.00 0.00 96 1007.9
20260904145002 66 291 5.0 8.0 0.00 0.00 0.00 96 1008.0
20260904144024 66 325 5.0 9.0 0.00 0.00 0.00 96 1008.0
20260904143002 65 324 7.0 10.0 0.00 0.00 0.00 96 1008.0
20260904142003 65 281 5.0 9.0 0.00 0.00 0.00 96 1008.1
20260904141024 65 295 5.0 8.0 0.00 0.01 0.00 96 1008.2
20260904140002 65 319 5.0 9.0 0.00 0.01 0.00 96 1008.2
20260904135003 65 322 3.0 8.0 0.00 0.01 0.00 96 1008.3
20260904134003 64 329 4.0 11.0 0.00 0.01 0.00 96 1008.3